Weather Service Report


950 
ASUS44 KLZK 250405
RWRLZK

WEATHER ROUNDUP FOR ARKANSAS
NATIONAL WEATHER SERVICE LITTLE ROCK AR
1100 PM CDT FRI APR 24 2015

NOTE: "FAIR" INDICATES FEW OR NO CLOUDS BELOW 12,000 FEET WITH NO
SIGNIFICANT WEATHER AND/OR OBSTRUCTIONS TO VISIBILITY.

ARZ001-003-010-029-250500-
NORTHWEST ARKANSAS
  
CITY           SKY/WX    TMP DP  RH WIND       PRES   REMARKS
FAYETTEVILLE   CLOUDY    61  58  90 S15G22    29.65F                  
FORT SMITH     CLOUDY    60  58  92 E7        29.66S                  
HARRISON       LGT RAIN  60  58  92 SE15G24   29.67S                  
BENTONVILLE    CLOUDY   N/A N/A N/A S5        29.64F                  
ROGERS         CLOUDY    60  56  86 SE10      29.64F                  
SILOAM SPGS    CLOUDY    61  52  72 S10       29.65S                  
HIGHFILL       CLOUDY    60  56  86 S10       29.63F                  
$$

ARZ004-005-016-250500-
NORTH CENTRAL ARKANSAS
  
CITY           SKY/WX    TMP DP  RH WIND       PRES   REMARKS
BATESVILLE     CLOUDY    57  55  94 SE8       29.73R                  
FLIPPIN        CLOUDY    61  57  88 SE5       29.67S                  
MTN HOME       CLOUDY    57  56  96 CALM      29.68F                  
$$

ARZ040-041-250500-
WEST CENTRAL ARKANSAS
  
CITY           SKY/WX    TMP DP  RH WIND       PRES   REMARKS
MENA           CLOUDY    63  61  94 CALM      29.70F                  
MOUNT IDA      LGT RAIN  62  61  96 E8G22     29.66F                  
$$

ARZ009-017-025-026-028-250500-
NORTHEAST ARKANSAS
  
CITY           SKY/WX    TMP DP  RH WIND       PRES   REMARKS
CORNING          N/A     55  55 100 S12       29.73F FOG              
JONESBORO      CLOUDY    55  55 100 SE20G29   29.72F                  
NEWPORT        CLOUDY    57  57 100 S13       29.76F                  
WALNUT RIDGE   CLOUDY    55  52  88 S23       29.71F                  
BLYTHEVILLE    CLOUDY    57  55  93 S20       29.80F                  
$$

ARZ022-023-033-042-044-250500-
CENTRAL ARKANSAS
  
CITY           SKY/WX    TMP DP  RH WIND       PRES   REMARKS
LITTLE ROCK    LGT RAIN  61  57  88 SE12G21   29.73F                  
N LITTLE ROCK  CLOUDY    59  59 100 SE15G28   29.73F                  
JACKSONVILLE   CLOUDY    61  61  99 VRB2      29.74R                  
SEARCY         LGT RAIN  58  58 100 E5        29.76S                  
HOT SPRINGS    TSTM      61  60  97 SE6       29.78R FOG              
RUSSELLVILLE   CLOUDY    60  59  96 SE7       29.70F                  
CLINTON        CLOUDY    59  59 100 CALM      29.75R                  
$$

ARZ036-250500-
EAST ARKANSAS
  
CITY           SKY/WX    TMP DP  RH WIND       PRES   REMARKS
WEST MEMPHIS   LGT RAIN  56  56 100 SE17G25   29.80F                  
$$

ARZ050-053-066-070-073-250500-
SOUTHWEST ARKANSAS
  
CITY           SKY/WX    TMP DP  RH WIND       PRES   REMARKS
ARKADELPHIA    RAIN      61  61 100 SW3       29.82R FOG              
TEXARKANA      LGT RAIN  62  61  96 E8        29.72F                  
EL DORADO      TSTM      62  61  96 VRB7      29.78R FOG              
DE QUEEN       CLOUDY    63  61  93 E5        29.67R                  
$$

ARZ056-057-069-250500-
SOUTHEAST ARKANSAS
  
CITY           SKY/WX    TMP DP  RH WIND       PRES   REMARKS
PINE BLUFF     RAIN      59  58  96 E9        29.75F                  
STUTTGART      CLOUDY    57  55  94 E8        29.79S                  
MONTICELLO     TSTM      61  60  97 N8G20     29.79R FOG              

$$



Return to Home page


Western Regional Climate Center, wrcc@dri.edu